Terug naar catalogus

STARLINK-36333

ActiefCommunicatieVLEO
NORAD 68256·PAYLOAD·🇺🇸 United States

Gelanceerd Mar 17, 2026 vanaf Vandenberg Space Force Base

Loading…

Volgende Passages (komende 24 uur)

TLE

VersSource: CelesTrak SupGP

Epoch: Sep 15, 2026, 04:23 UTC

1 68256C 26054AA  26258.18312500  .00033440  00000+0  98811-3 0  2588
2 68256  53.1573 134.6728 0001234  83.0836 253.6424 15.34370270    11

Volg STARLINK-36333 in realtime met AllMySat

Download on the App Store